| time (UTC) | temp C | wind direction | speed KPH | gust KPH | rain 1hr cm | rain 24hr cm | rain mn cm | humidity % | barometer mb |
| 20260505083505 | 16 | 173 | 0.0 | 0.0 | 0.00 | 0.00 | 0.00 | 35 | 1014.0 |
| 20260505083005 | 16 | 173 | 0.0 | 0.0 | 0.00 | 0.00 | 0.00 | 35 | 1014.0 |
| 20260505082504 | 16 | 173 | 0.0 | 0.0 | 0.00 | 0.00 | 0.00 | 36 | 1014.1 |
| 20260505082004 | 16 | 173 | 0.0 | 1.6 | 0.00 | 0.00 | 0.00 | 37 | 1014.0 |
| 20260505081503 | 16 | 173 | 0.0 | 4.8 | 0.00 | 0.00 | 0.00 | 37 | 1014.0 |
| 20260505081003 | 16 | 173 | 1.6 | 4.8 | 0.00 | 0.00 | 0.00 | 38 | 1014.0 |
| 20260505080505 | 16 | 197 | 0.0 | 6.4 | 0.00 | 0.00 | 0.00 | 39 | 1014.0 |
| 20260505080004 | 16 | 197 | 3.2 | 6.4 | 0.00 | 0.00 | 0.00 | 39 | 1013.9 |
| 20260505075501 | 16 | 203 | 1.6 | 4.8 | 0.00 | 0.00 | 0.00 | 40 | 1014.0 |
| 20260505075100 | 16 | 203 | 1.6 | 4.8 | 0.00 | 0.00 | 0.00 | 40 | 1014.0 |
| 20260505074559 | 16 | 203 | 1.6 | 4.8 | 0.00 | 0.00 | 0.00 | 41 | 1013.8 |
| 20260505074059 | 16 | 214 | 0.0 | 4.8 | 0.00 | 0.00 | 0.00 | 42 | 1013.8 |
| 20260505073558 | 16 | 215 | 1.6 | 4.8 | 0.00 | 0.00 | 0.00 | 43 | 1013.8 |
| 20260505073102 | 16 | 215 | 1.6 | 4.8 | 0.00 | 0.00 | 0.00 | 44 | 1013.5 |
| 20260505072600 | 16 | 169 | 0.0 | 0.0 | 0.00 | 0.00 | 0.00 | 45 | 1013.5 |
| 20260505072058 | 16 | 158 | 0.0 | 6.4 | 0.00 | 0.00 | 0.00 | 46 | 1013.5 |
| 20260505071600 | 16 | 158 | 0.0 | 9.7 | 0.00 | 0.00 | 0.00 | 46 | 1013.5 |
| 20260505071054 | 16 | 169 | 1.6 | 9.7 | 0.00 | 0.00 | 0.00 | 47 | 1013.4 |
| 20260505070554 | 16 | 190 | 1.6 | 8.0 | 0.00 | 0.00 | 0.00 | 48 | 1013.3 |
| 20260505070103 | 16 | 188 | 1.6 | 6.4 | 0.00 | 0.00 | 0.00 | 49 | 1013.2 |
| 20260505065554 | 16 | 157 | 1.6 | 4.8 | 0.00 | 0.00 | 0.00 | 50 | 1013.3 |
| 20260505065052 | 16 | 150 | 0.0 | 6.4 | 0.00 | 0.00 | 0.00 | 50 | 1013.3 |
| 20260505064557 | 16 | 149 | 1.6 | 6.4 | 0.00 | 0.00 | 0.00 | 51 | 1013.3 |
| 20260505064051 | 16 | 122 | 0.0 | 4.8 | 0.00 | 0.00 | 0.00 | 52 | 1013.3 |
| 20260505063551 | 16 | 167 | 3.2 | 4.8 | 0.00 | 0.00 | 0.00 | 53 | 1013.2 |
| 20260505063051 | 16 | 164 | 0.0 | 4.8 | 0.00 | 0.00 | 0.00 | 54 | 1013.2 |
| 20260505062550 | 16 | 177 | 1.6 | 4.8 | 0.00 | 0.00 | 0.00 | 55 | 1013.3 |
| 20260505062052 | 16 | 155 | 1.6 | 4.8 | 0.00 | 0.00 | 0.00 | 55 | 1013.2 |
| 20260505061611 | 16 | 150 | 0.0 | 4.8 | 0.00 | 0.00 | 0.00 | 55 | 1013.3 |
| 20260505061049 | 16 | 162 | 1.6 | 4.8 | 0.00 | 0.00 | 0.00 | 55 | 1013.3 |
| 20260505060548 | 16 | 163 | 0.0 | 6.4 | 0.00 | 0.00 | 0.00 | 55 | 1013.3 |
| 20260505060053 | 16 | 162 | 0.0 | 6.4 | 0.00 | 0.00 | 0.00 | 56 | 1013.3 |
| 20260505055550 | 16 | 196 | 1.6 | 9.7 | 0.00 | 0.00 | 0.00 | 56 | 1013.4 |
| 20260505055046 | 16 | 122 | 1.6 | 11.3 | 0.00 | 0.00 | 0.00 | 55 | 1013.4 |
| 20260505054549 | 16 | 155 | 1.6 | 11.3 | 0.00 | 0.00 | 0.00 | 55 | 1013.4 |
| 20260505054045 | 17 | 355 | 1.6 | 6.4 | 0.00 | 0.00 | 0.00 | 55 | 1013.4 |
| 20260505053545 | 17 | 201 | 1.6 | 6.4 | 0.00 | 0.00 | 0.00 | 55 | 1013.4 |
| 20260505053045 | 17 | 135 | 1.6 | 4.8 | 0.00 | 0.00 | 0.00 | 55 | 1013.4 |
| 20260505052549 | 17 | 121 | 1.6 | 4.8 | 0.00 | 0.00 | 0.00 | 55 | 1013.4 |
| 20260505052045 | 17 | 120 | 1.6 | 11.3 | 0.00 | 0.00 | 0.00 | 55 | 1013.5 |
| 20260505051545 | 17 | 175 | 3.2 | 11.3 | 0.00 | 0.00 | 0.00 | 55 | 1013.5 |
| 20260505051045 | 17 | 169 | 3.2 | 11.3 | 0.00 | 0.00 | 0.00 | 55 | 1013.4 |
| 20260505050544 | 17 | 188 | 1.6 | 6.4 | 0.00 | 0.00 | 0.00 | 54 | 1013.4 |
| 20260505041539 | 17 | 193 | 1.6 | 8.0 | 0.00 | 0.00 | 0.00 | 54 | 1013.1 |
| 20260505041041 | 17 | 167 | 3.2 | 12.9 | 0.00 | 0.00 | 0.00 | 54 | 1013.1 |
| 20260505040538 | 17 | 198 | 1.6 | 12.9 | 0.00 | 0.00 | 0.00 | 54 | 1013.1 |
| 20260505040051 | 17 | 161 | 0.0 | 4.8 | 0.00 | 0.00 | 0.00 | 55 | 1013.0 |
| 20260505035535 | 17 | 128 | 0.0 | 3.2 | 0.00 | 0.00 | 0.00 | 55 | 1013.0 |
| 20260505035039 | 16 | 146 | 0.0 | 0.0 | 0.00 | 0.00 | 0.00 | 55 | 1013.1 |
| 20260505034541 | 16 | 146 | 0.0 | 0.0 | 0.00 | 0.00 | 0.00 | 55 | 1012.9 |
| 20260505034035 | 16 | 146 | 0.0 | 1.6 | 0.00 | 0.00 | 0.00 | 55 | 1012.9 |
| 20260505033535 | 16 | 146 | 0.0 | 4.8 | 0.00 | 0.00 | 0.00 | 55 | 1013.0 |
| 20260505033034 | 16 | 146 | 0.0 | 4.8 | 0.00 | 0.00 | 0.00 | 55 | 1013.0 |
| 20260505032535 | 16 | 177 | 0.0 | 0.0 | 0.00 | 0.00 | 0.00 | 55 | 1013.0 |
| 20260505032036 | 17 | 177 | 0.0 | 3.2 | 0.00 | 0.00 | 0.00 | 55 | 1013.0 |
| 20260505031545 | 17 | 177 | 0.0 | 3.2 | 0.00 | 0.00 | 0.00 | 55 | 1013.0 |
| 20260505031034 | 17 | 180 | 0.0 | 0.0 | 0.00 | 0.00 | 0.00 | 55 | 1013.0 |
| 20260505030534 | 17 | 180 | 0.0 | 1.6 | 0.00 | 0.00 | 0.00 | 55 | 1013.0 |
| 20260505030034 | 17 | 180 | 0.0 | 1.6 | 0.00 | 0.00 | 0.00 | 55 | 1013.0 |
| 20260505025534 | 17 | 180 | 0.0 | 1.6 | 0.00 | 0.00 | 0.00 | 55 | 1013.0 |
| 20260505025038 | 17 | 180 | 0.0 | 1.6 | 0.00 | 0.00 | 0.00 | 55 | 1013.1 |
| 20260505024534 | 17 | 180 | 0.0 | 0.0 | 0.00 | 0.00 | 0.00 | 55 | 1013.2 |
| 20260505024034 | 17 | 180 | 0.0 | 0.0 | 0.00 | 0.00 | 0.00 | 54 | 1013.1 |
| 20260505023533 | 17 | 180 | 0.0 | 0.0 | 0.00 | 0.00 | 0.00 | 55 | 1013.0 |
| 20260505023033 | 17 | 180 | 0.0 | 0.0 | 0.00 | 0.00 | 0.00 | 55 | 1013.0 |
| 20260505022534 | 17 | 180 | 0.0 | 1.6 | 0.00 | 0.00 | 0.00 | 54 | 1013.0 |
| 20260505022033 | 18 | 180 | 0.0 | 1.6 | 0.00 | 0.00 | 0.00 | 54 | 1013.0 |
| 20260505021535 | 18 | 180 | 0.0 | 0.0 | 0.00 | 0.00 | 0.00 | 54 | 1012.9 |
| 20260505021033 | 18 | 180 | 0.0 | 0.0 | 0.00 | 0.00 | 0.00 | 53 | 1013.0 |
| 20260505020533 | 18 | 180 | 0.0 | 0.0 | 0.00 | 0.00 | 0.00 | 53 | 1012.9 |
| 20260505020039 | 18 | 180 | 0.0 | 0.0 | 0.00 | 0.00 | 0.00 | 53 | 1012.9 |
| 20260505015533 | 18 | 180 | 0.0 | 0.0 | 0.00 | 0.00 | 0.00 | 53 | 1012.9 |
| 20260505015032 | 18 | 180 | 0.0 | 0.0 | 0.00 | 0.00 | 0.00 | 52 | 1012.8 |
| 20260505014534 | 18 | 180 | 0.0 | 0.0 | 0.00 | 0.00 | 0.00 | 52 | 1012.9 |
| 20260505014034 | 18 | 180 | 0.0 | 0.0 | 0.00 | 0.00 | 0.00 | 52 | 1012.8 |
| 20260505013531 | 19 | 180 | 0.0 | 0.0 | 0.00 | 0.00 | 0.00 | 51 | 1012.7 |
| 20260505013032 | 19 | 180 | 0.0 | 0.0 | 0.00 | 0.00 | 0.00 | 50 | 1012.7 |
| 20260505012532 | 19 | 180 | 0.0 | 0.0 | 0.00 | 0.00 | 0.00 | 49 | 1012.7 |
| 20260505012035 | 19 | 180 | 0.0 | 0.0 | 0.00 | 0.00 | 0.00 | 50 | 1012.5 |
| 20260505011531 | 20 | 180 | 0.0 | 0.0 | 0.00 | 0.00 | 0.00 | 49 | 1012.5 |
| 20260505011032 | 20 | 180 | 0.0 | 0.0 | 0.00 | 0.00 | 0.00 | 49 | 1012.4 |
| 20260505010531 | 20 | 180 | 0.0 | 0.0 | 0.00 | 0.00 | 0.00 | 49 | 1012.5 |
| 20260505010033 | 20 | 180 | 0.0 | 0.0 | 0.00 | 0.00 | 0.00 | 48 | 1012.4 |
| 20260505005532 | 20 | 180 | 0.0 | 0.0 | 0.00 | 0.00 | 0.00 | 47 | 1012.4 |
| 20260505005030 | 20 | 180 | 0.0 | 0.0 | 0.00 | 0.00 | 0.00 | 48 | 1012.2 |
| 20260505004531 | 20 | 180 | 0.0 | 0.0 | 0.00 | 0.00 | 0.00 | 47 | 1012.2 |
| 20260505004030 | 21 | 180 | 0.0 | 0.0 | 0.00 | 0.00 | 0.00 | 47 | 1012.4 |
| 20260505003530 | 21 | 180 | 0.0 | 0.0 | 0.00 | 0.00 | 0.00 | 47 | 1012.3 |
| 20260505003030 | 21 | 180 | 0.0 | 0.0 | 0.00 | 0.00 | 0.00 | 46 | 1012.3 |
| 20260505002529 | 21 | 180 | 0.0 | 0.0 | 0.00 | 0.00 | 0.00 | 45 | 1012.3 |
| 20260505002029 | 21 | 180 | 0.0 | 0.0 | 0.00 | 0.00 | 0.00 | 44 | 1012.3 |
| 20260505001530 | 21 | 180 | 0.0 | 0.0 | 0.00 | 0.00 | 0.00 | 44 | 1012.1 |
| 20260505001029 | 21 | 180 | 0.0 | 0.0 | 0.00 | 0.00 | 0.00 | 42 | 1012.3 |
| 20260505000528 | 21 | 180 | 0.0 | 0.0 | 0.00 | 0.00 | 0.00 | 41 | 1012.4 |
| 20260505000042 | 22 | 180 | 0.0 | 0.0 | 0.00 | 0.00 | 0.00 | 41 | 1012.5 |
| 20260504235529 | 22 | 180 | 0.0 | 0.0 | 0.00 | 0.00 | 0.00 | 40 | 1012.5 |
| 20260504235028 | 22 | 180 | 0.0 | 0.0 | 0.00 | 0.00 | 0.00 | 40 | 1012.4 |
| 20260504234528 | 22 | 180 | 0.0 | 0.0 | 0.00 | 0.00 | 0.00 | 39 | 1012.2 |
| 20260504234027 | 22 | 180 | 0.0 | 1.6 | 0.00 | 0.00 | 0.00 | 39 | 1012.3 |
| 20260504233527 | 22 | 180 | 0.0 | 1.6 | 0.00 | 0.00 | 0.00 | 38 | 1012.2 |
| 20260504233027 | 22 | 180 | 0.0 | 3.2 | 0.00 | 0.00 | 0.00 | 38 | 1012.2 |
| 20260504232528 | 22 | 180 | 0.0 | 3.2 | 0.00 | 0.00 | 0.00 | 38 | 1012.1 |
| 20260504232027 | 22 | 180 | 0.0 | 1.6 | 0.00 | 0.00 | 0.00 | 37 | 1012.1 |
| 20260504231527 | 22 | 180 | 0.0 | 3.2 | 0.00 | 0.00 | 0.00 | 37 | 1011.9 |
| 20260504231027 | 23 | 180 | 0.0 | 3.2 | 0.00 | 0.00 | 0.00 | 36 | 1012.0 |
| 20260504230527 | 23 | 180 | 1.6 | 6.4 | 0.00 | 0.00 | 0.00 | 36 | 1011.9 |
| 20260504230027 | 23 | 57 | 1.6 | 11.3 | 0.00 | 0.00 | 0.00 | 36 | 1011.9 |
| 20260504225531 | 23 | 207 | 1.6 | 14.5 | 0.00 | 0.00 | 0.00 | 35 | 1012.0 |
| 20260504225025 | 23 | 155 | 1.6 | 14.5 | 0.00 | 0.00 | 0.00 | 34 | 1012.0 |
| 20260504224525 | 23 | 194 | 1.6 | 4.8 | 0.00 | 0.00 | 0.00 | 35 | 1012.1 |
| 20260504224025 | 23 | 231 | 1.6 | 6.4 | 0.00 | 0.00 | 0.00 | 35 | 1012.2 |
| 20260504223525 | 23 | 111 | 1.6 | 6.4 | 0.00 | 0.00 | 0.00 | 34 | 1012.1 |
| 20260504223026 | 23 | 192 | 1.6 | 6.4 | 0.00 | 0.00 | 0.00 | 34 | 1012.1 |
| 20260504222525 | 23 | 214 | 1.6 | 11.3 | 0.00 | 0.00 | 0.00 | 34 | 1012.2 |
| 20260504222025 | 23 | 237 | 3.2 | 11.3 | 0.00 | 0.00 | 0.00 | 34 | 1012.1 |
| 20260504221527 | 23 | 238 | 1.6 | 8.0 | 0.00 | 0.00 | 0.00 | 34 | 1012.0 |
| 20260504221025 | 23 | 208 | 1.6 | 6.4 | 0.00 | 0.00 | 0.00 | 34 | 1011.9 |
| 20260504220526 | 23 | 210 | 3.2 | 6.4 | 0.00 | 0.00 | 0.00 | 33 | 1012.1 |
| 20260504220040 | 23 | 227 | 1.6 | 6.4 | 0.00 | 0.00 | 0.00 | 35 | 1012.0 |
| 20260504215524 | 23 | 228 | 1.6 | 6.4 | 0.00 | 0.00 | 0.00 | 35 | 1012.0 |
| 20260504215026 | 23 | 228 | 3.2 | 6.4 | 0.00 | 0.00 | 0.00 | 32 | 1012.0 |
| 20260504214524 | 24 | 119 | 1.6 | 6.4 | 0.00 | 0.00 | 0.00 | 32 | 1012.1 |
| 20260504214022 | 24 | 189 | 1.6 | 6.4 | 0.00 | 0.00 | 0.00 | 33 | 1012.0 |
| 20260504213524 | 24 | 241 | 0.0 | 6.4 | 0.00 | 0.00 | 0.00 | 32 | 1012.1 |
| 20260504213023 | 24 | 233 | 1.6 | 8.0 | 0.00 | 0.00 | 0.00 | 31 | 1012.1 |
| 20260504212522 | 24 | 233 | 3.2 | 9.7 | 0.00 | 0.00 | 0.00 | 31 | 1012.0 |
| 20260504212024 | 24 | 222 | 3.2 | 9.7 | 0.00 | 0.00 | 0.00 | 32 | 1012.0 |
| 20260504211526 | 24 | 221 | 0.0 | 6.4 | 0.00 | 0.00 | 0.00 | 33 | 1012.0 |
| 20260504211021 | 24 | 229 | 3.2 | 6.4 | 0.00 | 0.00 | 0.00 | 31 | 1012.1 |
| 20260504210521 | 25 | 210 | 1.6 | 14.5 | 0.00 | 0.00 | 0.00 | 31 | 1012.1 |
| 20260504210022 | 25 | 159 | 4.8 | 14.5 | 0.00 | 0.00 | 0.00 | 31 | 1012.0 |
| 20260504205521 | 25 | 220 | 1.6 | 6.4 | 0.00 | 0.00 | 0.00 | 31 | 1011.9 |
| 20260504205019 | 25 | 207 | 1.6 | 11.3 | 0.00 | 0.00 | 0.00 | 31 | 1012.0 |
| 20260504204534 | 25 | 155 | 3.2 | 11.3 | 0.00 | 0.00 | 0.00 | 29 | 1012.0 |
| 20260504204019 | 25 | 118 | 1.6 | 8.0 | 0.00 | 0.00 | 0.00 | 31 | 1012.1 |
| 20260504203519 | 25 | 209 | 1.6 | 6.4 | 0.00 | 0.00 | 0.00 | 30 | 1012.2 |
| 20260504203018 | 26 | 203 | 1.6 | 8.0 | 0.00 | 0.00 | 0.00 | 30 | 1012.1 |
| 20260504202518 | 26 | 202 | 3.2 | 8.0 | 0.00 | 0.00 | 0.00 | 29 | 1012.3 |
| 20260504202016 | 26 | 247 | 1.6 | 8.0 | 0.00 | 0.00 | 0.00 | 29 | 1012.2 |
| 20260504201517 | 26 | 220 | 3.2 | 8.0 | 0.00 | 0.00 | 0.00 | 28 | 1012.2 |
| 20260504201016 | 27 | 217 | 1.6 | 6.4 | 0.00 | 0.00 | 0.00 | 28 | 1012.3 |
| 20260504200515 | 27 | 198 | 3.2 | 8.0 | 0.00 | 0.00 | 0.00 | 29 | 1012.3 |
| 20260504200016 | 27 | 232 | 3.2 | 8.0 | 0.00 | 0.00 | 0.00 | 28 | 1012.4 |
| 20260504195516 | 27 | 156 | 3.2 | 8.0 | 0.00 | 0.00 | 0.00 | 28 | 1012.4 |
| 20260504195015 | 27 | 238 | 1.6 | 6.4 | 0.00 | 0.00 | 0.00 | 27 | 1012.5 |
| 20260504194515 | 27 | 238 | 1.6 | 6.4 | 0.00 | 0.00 | 0.00 | 28 | 1012.5 |
| 20260504194014 | 27 | 110 | 0.0 | 4.8 | 0.00 | 0.00 | 0.00 | 28 | 1012.5 |
| 20260504193511 | 27 | 90 | 0.0 | 4.8 | 0.00 | 0.00 | 0.00 | 28 | 1012.7 |
| 20260504193011 | 27 | 159 | 1.6 | 4.8 | 0.00 | 0.00 | 0.00 | 29 | 1012.7 |
| 20260504192509 | 27 | 142 | 1.6 | 4.8 | 0.00 | 0.00 | 0.00 | 30 | 1012.9 |
| 20260504192011 | 26 | 142 | 0.0 | 6.4 | 0.00 | 0.00 | 0.00 | 30 | 1012.9 |
| 20260504191507 | 26 | 142 | 1.6 | 6.4 | 0.00 | 0.00 | 0.00 | 30 | 1013.0 |
| 20260504191006 | 26 | 138 | 1.6 | 4.8 | 0.00 | 0.00 | 0.00 | 29 | 1013.1 |
| 20260504190505 | 26 | 146 | 1.6 | 14.5 | 0.00 | 0.00 | 0.00 | 31 | 1013.1 |
| 20260504190010 | 25 | 125 | 1.6 | 14.5 | 0.00 | 0.00 | 0.00 | 31 | 1013.1 |
| 20260504185502 | 25 | 195 | 3.2 | 11.3 | 0.00 | 0.00 | 0.00 | 31 | 1013.3 |
| 20260504185005 | 25 | 152 | 3.2 | 8.0 | 0.00 | 0.00 | 0.00 | 31 | 1013.4 |
| 20260504184504 | 25 | 224 | 1.6 | 6.4 | 0.00 | 0.00 | 0.00 | 34 | 1013.4 |
| 20260504184001 | 25 | 224 | 1.6 | 4.8 | 0.00 | 0.00 | 0.00 | 32 | 1013.4 |
| 20260504183502 | 25 | 224 | 0.0 | 4.8 | 0.00 | 0.00 | 0.00 | 33 | 1013.3 |
| 20260504183001 | 25 | 224 | 1.6 | 4.8 | 0.00 | 0.00 | 0.00 | 31 | 1013.4 |
| 20260504182600 | 25 | 217 | 1.6 | 4.8 | 0.00 | 0.00 | 0.00 | 31 | 1013.5 |
| 20260504182059 | 25 | 217 | 1.6 | 6.4 | 0.00 | 0.00 | 0.00 | 31 | 1013.5 |
| 20260504181559 | 25 | 190 | 3.2 | 6.4 | 0.00 | 0.00 | 0.00 | 30 | 1013.8 |
| 20260504181058 | 25 | 149 | 3.2 | 14.5 | 0.00 | 0.00 | 0.00 | 30 | 1013.8 |
| 20260504180559 | 24 | 214 | 3.2 | 14.5 | 0.00 | 0.00 | 0.00 | 30 | 1013.8 |
| 20260504180137 | 24 | 190 | 1.6 | 9.7 | 0.00 | 0.00 | 0.00 | 31 | 1014.1 |
| 20260504175557 | 24 | 179 | 3.2 | 9.7 | 0.00 | 0.00 | 0.00 | 31 | 1014.2 |
| 20260504175056 | 24 | 198 | 3.2 | 6.4 | 0.00 | 0.00 | 0.00 | 32 | 1014.2 |
| 20260504174554 | 24 | 223 | 1.6 | 9.7 | 0.00 | 0.00 | 0.00 | 32 | 1014.2 |
| 20260504174055 | 24 | 215 | 3.2 | 9.7 | 0.00 | 0.00 | 0.00 | 31 | 1014.3 |
| 20260504173554 | 24 | 196 | 1.6 | 8.0 | 0.00 | 0.00 | 0.00 | 34 | 1014.3 |
| 20260504173053 | 25 | 145 | 3.2 | 8.0 | 0.00 | 0.00 | 0.00 | 33 | 1014.4 |
| 20260504172553 | 25 | 214 | 0.0 | 6.4 | 0.00 | 0.00 | 0.00 | 32 | 1014.4 |
| 20260504172056 | 25 | 213 | 1.6 | 6.4 | 0.00 | 0.00 | 0.00 | 32 | 1014.5 |
| 20260504171553 | 25 | 199 | 0.0 | 6.4 | 0.00 | 0.00 | 0.00 | 32 | 1014.5 |
| 20260504171052 | 25 | 198 | 1.6 | 6.4 | 0.00 | 0.00 | 0.00 | 32 | 1014.7 |
| 20260504170551 | 25 | 163 | 1.6 | 4.8 | 0.00 | 0.00 | 0.00 | 30 | 1014.6 |
| 20260504151027 | 22 | 175 | 3.2 | 8.0 | 0.00 | 0.00 | 0.00 | 35 | 1015.8 |
| 20260504150526 | 22 | 151 | 1.6 | 12.9 | 0.00 | 0.00 | 0.00 | 35 | 1015.8 |
| 20260504141010 | 18 | 115 | 1.6 | 6.4 | 0.00 | 0.00 | 0.00 | 44 | 1016.0 |
| 20260504140508 | 18 | 127 | 0.0 | 3.2 | 0.00 | 0.00 | 0.00 | 47 | 1016.1 |
| 20260504130552 | 15 | 213 | 0.0 | 3.2 | 0.00 | 0.00 | 0.00 | 52 | 1016.3 |
| 20260504110525 | 10 | 130 | 1.6 | 3.2 | 0.00 | 0.00 | 0.00 | 55 | 1016.7 |
| 20260504100519 | 10 | 126 | 0.0 | 3.2 | 0.00 | 0.00 | 0.00 | 56 | 1016.5 |